STARLINK-2440, 48105

Orbit data source: Space-Track

STARLINK-2440, 48105 is a payload satellite owned by SpaceX/Seattle (US) in LEO that was launched on Wed, 07 Apr 2021 UTC via an FALCON 9 launch vehicle from the Air Force Eastern Test Range (AFETR). Payload-class satellites include a variety of spacecraft equipped with specific instruments for various scientific and technological missions. These include communications satellites like Starlink; space stations such as the ISS; scientific satellites like the Hubble; Earth observation satellites from companies like Planet Labs, Umbra, and HawkEye 360; GPS; miniature CubeSats for education and research; and military/defense satellites.

Loading next visibility...
Identifier
48105, 2021-027P
Orbit
LEO
Country
Flag of USUS
Related business
Manufacturer
SpaceX/Seattle
Mission
Operational Commercial Communications
Bus & Motor
STARLINK, Unknown motor
Mass
260 kg wet, ~248 kg dry
Launch date (UTC)
2021-04-07 (5 years ago)
Launch vehicle
FALCON 9
Launch site
Air Force Eastern Test Range (AFETR)
Object type
Payload
Rocket body
Debris
Shape & HBR
Box + 1 Pan, 10.1 m
Radar Cross Section
13.562 m², Large (>1 m²)

Expand to show TLE details & history
Last TLE update: 3 days ago

TLE from 3 days ago
0 STARLINK-2440
1 48105U 21027P   26170.78394264  .00000003  00000-0  11870-4 0  9993
2 48105  53.1598 346.2877 0001148  94.2638 265.8495 15.31703420289042
Epoch: 2026-06-19T18:48Z
TLE epoch observation values (Epoch: 2026-06-19T18:48:52.644Z)
Latitude
0.00003°
Longitude
156.06042°
Altitude
471.687 km
Speed
7.631 km/s
True Right ascension
23h 05m 09s
True Declination
0° 00' 00"
Sunlit
Object was in daylight at epoch
Visualization orbit readout
Latitude
Unknown
Longitude
Unknown
Altitude
Unknown
Speed
Unknown
Apparent Right ascension
Unknown
Apparent Declination
Unknown
Sunlit
N/A
Visualization observer readout
Local Sidereal Time
00:36:52
Azimuth
Unknown
Elevation
Unknown
Doppler factor
Unknown
Orbital elements
Apogee altitude
471.773 km
Perigee altitude
470.2 km
Semi-major axis
6,849.123 km
Eccentricity
0.00011
Inclination
53.1598°
RAAN
346.2877°
Arg. of periapsis
94.2638°
True anomaly
265.83638°
Mean anomaly
265.8495°
Eccentric anomaly
265.84294°
Mean motion
3.82905 °/min
Orbital period
94.02 mins
BSTAR
0.00001187
Loading maneuver chart data...
Computing Atmospheric mass density...

Documentation

Showing up to 5 results
|